Погода Кики Акки

Погода Кики Акки : погода сейчас, прогноз погоды и архив. Всё, что Вы хотите узнать о погоде Кики Акки!

Хотите узнать прогноз погоды Кики Акки? Тогда Вам сюда: Погода Кики Акки

Поиск расширенной информации на нашем сайте:

Другие новости

Новости СМИ2

Главная страница сайта

Новости сайта

03.07.2017

Напоминаем, что на нашем специализированном сайте Метеоцентр.Азия вы можете получить высокодетализированные автоматические прогнозы погоды по пунктам России, СНГ и мира в авиационном формате (включающие направление и скорость ветра, видимость, явления погоды, количество и форму облачности, нижнюю и верхнюю границу облачности).

Рекомендуем: Рыбалка сайт о рыбалке.

Погода Кики Акки - сегодня

Время (UTC), дата Ветер
(°,м/с) 
Видим.   Явления Облачность Т
(°С)
Тd
(°С)
f(%) Тe
(°С)
Pmin
(гПа)
dP
(гПа)
Po
(мм)
O2
(г/м3)
Тmin Tmax R s Состояние
почвы
06 23.07.17 120 (ЮВ) 20000 м    3/3 600 м кучево-дожд. 
[Cb cap]
+26.5 +10.1 36 +28  1015.9  -0.6  759  277           
09 23.07.17 080 (В) 20000 м    3/3 600 м 
[Cu hum]
+28.2 +6.1 25 +28  1014.9  -1  758  276           
12 23.07.17 100 (В) 20000 м    ясно 
+28.2 +2.7 19 +28  1013.6  -1.3  757  276           
15 23.07.17 тихо ()   20000 м    ясно 
+21.9 +11.4 51 +25  1013.6  757  280    +28.6       
18 23.07.17 040 (СВ) 20000 м  местами туман поземный  ясно 
+13 +12 94 +18  1013.5  -0.3  757  289           
21 23.07.17 070 (В) 20000 м  местами туман поземный  ясно 
+10.2 +9.3 94 +11  1012.7  -0.8  756  292           
00 24.07.17 080 (В) 20000 м    ясно 
+16.6 +9.4 62 +18  1012.5  0.1  756  286           
03 24.07.17 100 (В) 20000 м    ясно 
+23.4 +9.2 40 +23  1011.9  -0.5  756  279  +10.1        сухая 
06 24.07.17 120 (ЮВ) 20000 м    1/1 600 м 
[Cu med, cong]
+27.9 +4.9 23 +28  1010.6  -1.3  755  275           
09 24.07.17 180 (Ю) 2{10}  20000 м    3/3 600 м 
[Cu med, cong]
+29.1 +5.6 23 +29  1009.4  -1.2  754  274           
12 24.07.17 100 (В) 20000 м    ясно 
+28 +5.3 24 +28  1008.4  -0.9  753  275           
15 24.07.17 тихо ()   20000 м    ясно 
+23.8 +11.9 47 +27  1008  -0.5  753  277    +29.2       
18 24.07.17 030 (СВ) 20000 м    ясно 
+13.6 +12.6 94 +20  1007.6  -0.5  753  286           
21 24.07.17 030 (СВ) 20000 м    10/3 600 м кучево-дожд., средняя, верхняя 
[Cb cap|Ac trans|Ci fib]
+12.2 +10.8 91 +15  1006.7  -0.5  752  288           
00 25.07.17 020 (С) 20000 м    10/3 600 м кучево-дожд., средняя, верхняя 
[Cb cap|Ac trans|Ci fib]
+18.8 +9.3 54 +20  1006.3  -0.3  752  282           
03 25.07.17 160 (Ю) 20000 м    8/3 600 м средняя, верхняя 
[Cu hum|Ac trans|Ci fib]
+22.7 +10.6 46 +25  1005.9  -0.3  751  278  +11.9         
06 25.07.17 290 (З) 20000 м    8/1 600 м верхняя 
[Cu hum|Ci fib]
+26.8 +9.5 34 +27  1005.1  -0.7  751  274           
09 25.07.17 220 (ЮЗ) 20000 м    10/4 600 м кучево-дожд., средняя, верхняя 
[Cb cap|Ac trans|Ci sp]
+24 +12.8 50 +29  1005  -0.1  751  276           
12 25.07.17 270 (З) 20000 м    10/4 600 м кучево-дожд., средняя 
[Cb cap|Ac As]
+23.1 +14.7 59 +31  1004.4  -0.7  750  276           
15 25.07.17 300 (СЗ) 20000 м    10/6 600 м кучево-дожд., средняя 
[Cb cap|Ac As]
+21.2 +15.6 70 +31  1003.7  -0.6  750  277    +27.4       
18 25.07.17 330 (СЗ) 20000 м  {гроза, ливн. осадки}  10/8 600 м кучево-дожд., средняя 
[Cb cap|Ac As]
+18 +14.3 79 +26  1004  0.2  750  281           
21 25.07.17 170 (Ю) 20000 м    10/8 600 м кучево-дожд., средняя 
[Cb cap|Ac As]
+16.8 +14.2 85 +25  1003.1  -0.8  749  282           
00 26.07.17 330 (СЗ) 20000 м  {ливн. осадки}  10/10 300 м кучево-дожд. 
[Cb cap]
+16 +14.9 93 +26  1003.4  0.2  749  282           
03 26.07.17 030 (СВ) 10 км  слаб. ливневой дождь  10/6 600 м кучево-дожд., средняя 
[Cb calv|Ac As]
+16.9 +15.3 90 +27  1003.4  749  281  +15.8       
06 26.07.17 020 (С) 10 км  слаб. ливневой дождь  10/8 600 м кучево-дожд., средняя 
[Cb cap|Ac As]
+17.5 +15.9 90 +29  1003.7  750  280           
Время (UTC), дата Ветер
(°,м/с) 
Видим.   Явления Облачность Т
(°С)
Тd
(°С)
f(%) Тe
(°С)
Pmin
(гПа)
dP
(гПа)
Po
(мм)
O2
(г/м3)
Тmin Tmax R s Состояние
почвы

Для получения пояснительной информации подведите курсор к названию столбца.

ПОГОДА Кики Акки - архив

Всё, что Вы хотите узнать о погоде Кики Акки - удобно и подробно!

Выберите нужную дату (начиная с 1 января 2015* года) и нажмите кнопку "Найти".
Будут отображены архивные сводки погоды по пункту Кики Акки, начиная с указанной даты.


Отображать данные в формате CSV (для использования в таблицах Excel)


Внимание! Наш архив погоды предназначен исключительно для личного некоммерческого использования в познавательных целях. Если Вам необходимы официальные справки о состоянии погоды (для производственных, юридических, коммерческих и т.п. целей), обращайтесь в органы Росгидромета.

*Примечание: данная дата относится к архиву по метеостанциям СССР (Россия, СНГ, Балтия).
Архив по метеостанциям Зарубежной Европы и Азии (кроме Китая) хранится 10 дней, по другим регионам земного шара (Китай, Африка, Америка, Австралия, Океания) - 1 день.

Кики Акки - район местоположения метеостанции


Название, широта, долгота, высота метеостанции:
Кики Акки (Толька) 63.8°ш. 82.7°д. 33 м над ур. моря [Российская Федерация]

Дополнительная информация

В oтличие oт бoльшинства пoгoдных сайтoв мы публикуем пoдрoбную метеoинфoрмацию в детальнoм прoфессиoнальнoм фoрмате.

Характеристики температуры и влажнoсти вoздуха измеряются на высoте 2 м в тени вдали oт зданий и деревьев.
Скoрoсть ветра измеряется на высoте 10 м (на урoвне рoста челoвека скoрoсть ветра ниже в 1.5-2 раза). Если метеoстанция нахoдится в гoрoде или в лесу, тo скoрoсть ветра занижена на 2-4 м/с пo сравнению с oткрытым местoм. Скoрoсть ветра над акватoриями крупных рек и oзёр, а также на вершинах хoлмoв на 2-5 м/с выше, чем в oбычных услoвиях.
Атмoсфернoе давление в разных тoчках местнoсти мoжет значительнo oтличаться oт давления на метеoстанции, в зависимoсти oт услoвий рельефа (при пoдъёме на 10 м давление пoнижается примернo на 1 мм рт.ст.).